Terminal Aerodrome Forecast
Issued by NWS

Home | Current Version | Previous Version | Text Only | Print | Product List | Glossary On
Versions: 1 2 3 4 5 6 7 8 9 10 11 12 13 14 15 16 17 18 19 20 21 22 23 24
000
FTUS42 KRAH 200528
TAFRWI
TAF
KRWI 200528Z 2006/2106 VRB03KT P6SM OVC250
     FM201200 05007KT P6SM OVC120
     FM201600 03009KT P6SM SCT018 OVC080=

USA.gov is the U.S. government's official web portal to all federal, state and local government web resources and services.